Weather History for KCPK - January, 2013

Change the Weather History Date:

Monday, January 21, 2013

  Actual Average (KORF) Record (KORF)
Temperature  
Mean Temperature 42 °F 40 °F  
Max Temperature 57 °F 48 °F 74 °F (1935)
Min Temperature 28 °F 33 °F -3 °F (1985)
Degree Days  
Heating Degree Days 22 25  
Month to date heating degree days 520  
Since 1 July heating degree days 1699  
Cooling Degree Days 0 0  
Month to date cooling degree days 0  
Year to date cooling degree days 0  
Moisture  
Dew Point 33 °F    
Average Humidity 66    
Maximum Humidity 100    
Minimum Humidity 41    
Precipitation  
Precipitation 0.00 in 0.11 in 1.25 in (1979)
Month to date precipitation 2.31  
Year to date precipitation 2.31  
Snow  
Snow 0.00 in 0.10 in 2.00 in (2014)
Month to date snowfall 1.7  
Since 1 July snowfall 2.9  
Snow Depth -    
Sea Level Pressure  
Sea Level Pressure 29.98 in    
Wind  
Wind Speed 3 mph (SSW)    
Max Wind Speed 13 mph    
Max Gust Speed 17 mph    
Visibility 10 miles    
Events      
T = Trace of Precipitation, MM = Missing Value Source: NWS Daily Summary

Daily Weather History Graph

Daily Weather History Graph

Search for Another Location

Airport or City:

Trip Planner

Search our weather history database for the weather conditions in past years. The results will help you decide how hot, cold, wet, or windy it might be!

Date:

Astronomy

Jan. 21, 2013 Rise Set
Actual Time 7:14 AM EST 5:19 PM EST
Civil Twilight 6:46 AM EST 5:47 PM EST
Nautical Twilight 6:14 AM EST 6:18 PM EST
Astronomical Twilight 5:44 AM EST 6:49 PM EST
Moon 12:58 PM EST (1/21) 2:40 AM EST (1/21)
Length of Visible Light 11h 00m
Length of Day
10h 05m
Waxing Gibbous, 75% of the Moon is Illuminated
Jan 21
Waxing Gibbous
Jan 26
Full
Feb 3
Last Quarter
Feb 10
New
Feb 17
First Quarter

Hourly Weather History & Observations

Time (EST) Temp. Windchill Dew Point Humidity Pressure Visibility Wind Dir Wind Speed Gust Speed Precip Events Conditions
12:15 AM 44.6 °F - 30.2 °F 57% 30.07 in 10.0 mi Calm Calm - N/A   Clear
12:35 AM 39.2 °F - 32.0 °F 75% 30.07 in 10.0 mi Calm Calm - N/A   Clear
12:55 AM 39.2 °F - 32.0 °F 75% 30.07 in 10.0 mi Calm Calm - N/A   Clear
1:15 AM 37.4 °F - 33.8 °F 87% 30.08 in 10.0 mi Calm Calm - N/A   Clear
1:35 AM 37.4 °F - 32.0 °F 81% 30.09 in 10.0 mi Calm Calm - N/A   Clear
1:55 AM 35.6 °F - 32.0 °F 87% 30.09 in 10.0 mi Calm Calm - N/A   Clear
2:15 AM 33.8 °F - 30.2 °F 87% 30.09 in 10.0 mi Calm Calm - N/A   Clear
2:35 AM 35.6 °F - 30.2 °F 81% 30.09 in 10.0 mi Calm Calm - N/A   Clear
2:55 AM 33.8 °F - 32.0 °F 93% 30.09 in 10.0 mi Calm Calm - N/A   Clear
3:15 AM 33.8 °F - 30.2 °F 87% 30.09 in 10.0 mi Calm Calm - N/A   Clear
3:35 AM 33.8 °F - 30.2 °F 87% 30.09 in 10.0 mi Calm Calm - N/A   Clear
3:55 AM 33.8 °F - 30.2 °F 87% 30.08 in 10.0 mi Calm Calm - N/A   Clear
4:15 AM 32.0 °F - 30.2 °F 93% 30.08 in 10.0 mi Calm Calm - N/A   Clear
4:35 AM 32.0 °F - 30.2 °F 93% 30.08 in 10.0 mi Calm Calm - N/A   Clear
4:55 AM 32.0 °F - 30.2 °F 93% 30.09 in 10.0 mi Calm Calm - N/A   Clear
5:15 AM 32.0 °F - 30.2 °F 93% 30.09 in 10.0 mi Calm Calm - N/A   Clear
5:35 AM 32.0 °F - 30.2 °F 93% 30.09 in 10.0 mi Calm Calm - N/A   Clear
5:55 AM 30.2 °F - 28.4 °F 93% 30.09 in 10.0 mi Calm Calm - N/A   Clear
6:15 AM 30.2 °F - 28.4 °F 93% 30.08 in 10.0 mi Calm Calm - N/A   Clear
6:35 AM 30.2 °F - 28.4 °F 93% 30.08 in 10.0 mi Calm Calm - N/A   Clear
6:55 AM 28.4 °F - 28.4 °F 100% 30.08 in 10.0 mi Calm Calm - N/A   Clear
7:15 AM 28.4 °F - 28.4 °F 100% 30.09 in 10.0 mi Calm Calm - N/A   Clear
7:35 AM 30.2 °F - 28.4 °F 93% 30.08 in 10.0 mi Calm Calm - N/A   Clear
7:55 AM 32.0 °F - 30.2 °F 93% 30.08 in 10.0 mi Calm Calm - N/A   Clear
8:15 AM 33.8 °F - 30.2 °F 87% 30.08 in 10.0 mi Calm Calm - N/A   Clear
8:35 AM 35.6 °F - 32.0 °F 87% 30.08 in 10.0 mi Calm Calm - N/A   Clear
8:55 AM 39.2 °F - 33.8 °F 81% 30.09 in 10.0 mi Calm Calm - N/A   Clear
9:15 AM 44.6 °F - 33.8 °F 66% 30.09 in 10.0 mi Calm Calm - N/A   Clear
9:35 AM 46.4 °F 42.9 °F 33.8 °F 62% 30.10 in 10.0 mi East 6.9 mph - N/A   Clear
9:55 AM 48.2 °F - 33.8 °F 58% 30.10 in 10.0 mi East 5.8 mph - N/A   Clear
10:15 AM 48.2 °F - 33.8 °F 58% 30.09 in 10.0 mi ESE 8.1 mph - N/A   Clear
10:35 AM 50.0 °F - 35.6 °F 58% 30.09 in 10.0 mi East 8.1 mph - N/A   Clear
10:55 AM 51.8 °F - 35.6 °F 54% 30.07 in 10.0 mi East 8.1 mph - N/A   Clear
11:15 AM 51.8 °F - 35.6 °F 54% 30.06 in 10.0 mi East 8.1 mph - N/A   Clear
11:35 AM 53.6 °F - 35.6 °F 51% 30.04 in 10.0 mi ESE 8.1 mph - N/A   Clear
11:55 AM 53.6 °F - 35.6 °F 51% 30.02 in 10.0 mi ESE 10.4 mph - N/A   Clear
12:15 PM 53.6 °F - 37.4 °F 54% 30.00 in 10.0 mi ESE 8.1 mph 16.1 mph N/A   Clear
12:35 PM 53.6 °F - 37.4 °F 54% 29.98 in 10.0 mi SSE 4.6 mph - N/A   Clear
12:55 PM 55.4 °F - 35.6 °F 47% 29.97 in 10.0 mi South 8.1 mph - N/A   Clear
1:15 PM 57.2 °F - 35.6 °F 44% 29.95 in 10.0 mi SSW 9.2 mph - N/A   Clear
1:35 PM 57.2 °F - 33.8 °F 41% 29.94 in 10.0 mi SSW 9.2 mph - N/A   Clear
1:55 PM 57.2 °F - 35.6 °F 44% 29.93 in 10.0 mi South 8.1 mph - N/A   Clear
2:15 PM 57.2 °F - 37.4 °F 48% 29.92 in 10.0 mi SSW 10.4 mph - N/A   Clear
2:35 PM 57.2 °F - 35.6 °F 44% 29.91 in 10.0 mi South 11.5 mph - N/A   Clear
2:55 PM 57.2 °F - 33.8 °F 41% 29.89 in 10.0 mi South 9.2 mph - N/A   Clear
3:15 PM 57.2 °F - 33.8 °F 41% 29.88 in 10.0 mi South 12.7 mph - N/A   Clear
3:35 PM 57.2 °F - 35.6 °F 44% 29.87 in 10.0 mi South 9.2 mph - N/A   Clear
3:55 PM 57.2 °F - 35.6 °F 44% 29.87 in 10.0 mi SSW 10.4 mph - N/A   Clear
4:15 PM 57.2 °F - 35.6 °F 44% 29.85 in 10.0 mi SSW 6.9 mph - N/A   Clear
4:35 PM 55.4 °F - 35.6 °F 47% 29.85 in 10.0 mi SSW 10.4 mph - N/A   Clear
4:55 PM 55.4 °F - 35.6 °F 47% 29.85 in 10.0 mi SSW 8.1 mph - N/A   Clear
5:15 PM 51.8 °F - 35.6 °F 54% 29.84 in 10.0 mi South 5.8 mph - N/A   Clear
5:35 PM 50.0 °F - 35.6 °F 58% 29.83 in 10.0 mi South 3.5 mph - N/A   Clear
5:55 PM 51.8 °F - 35.6 °F 54% 29.83 in 10.0 mi South 4.6 mph - N/A   Clear
6:15 PM 48.2 °F - 35.6 °F 62% 29.83 in 10.0 mi South 4.6 mph - N/A   Clear
6:35 PM 48.2 °F - 35.6 °F 62% 29.84 in 10.0 mi Calm Calm - N/A   Unknown
6:55 PM 46.4 °F 45.2 °F 35.6 °F 66% 29.84 in 10.0 mi SW 3.5 mph - N/A   Clear
7:15 PM 46.4 °F 43.5 °F 35.6 °F 66% 29.83 in 10.0 mi SSW 5.8 mph - N/A   Clear
7:35 PM 46.4 °F 42.9 °F 35.6 °F 66% 29.83 in 10.0 mi SSW 6.9 mph - N/A   Clear
7:55 PM 46.4 °F 42.9 °F 33.8 °F 62% 29.83 in 10.0 mi SSW 6.9 mph - N/A   Clear
8:15 PM 50.0 °F - 33.8 °F 54% 29.83 in 10.0 mi SW 8.1 mph - N/A   Clear
8:35 PM 50.0 °F - 33.8 °F 54% 29.83 in 10.0 mi SW 8.1 mph - N/A   Clear
8:55 PM 50.0 °F - 33.8 °F 54% 29.84 in 10.0 mi SW 6.9 mph - N/A   Clear
9:15 PM 50.0 °F - 33.8 °F 54% 29.84 in 10.0 mi SW 8.1 mph - N/A   Clear
9:35 PM 50.0 °F - 33.8 °F 54% 29.86 in 10.0 mi West 10.4 mph - N/A   Clear
9:55 PM 48.2 °F - 32.0 °F 54% 29.88 in 10.0 mi West 9.2 mph - N/A   Clear
10:15 PM 48.2 °F - 30.2 °F 50% 29.88 in 10.0 mi West 10.4 mph 17.3 mph N/A   Clear
10:35 PM 48.2 °F - 26.6 °F 43% 29.89 in 10.0 mi West 11.5 mph - N/A   Clear
10:55 PM 46.4 °F 41.9 °F 26.6 °F 46% 29.89 in 10.0 mi West 9.2 mph - N/A   Clear
11:15 PM 44.6 °F 40.2 °F 26.6 °F 49% 29.90 in 10.0 mi West 8.1 mph - N/A   Clear
11:35 PM 44.6 °F 39.7 °F 24.8 °F 46% 29.90 in 10.0 mi West 9.2 mph - N/A   Clear
11:55 PM 44.6 °F 39.7 °F 23.0 °F 43% 29.91 in 10.0 mi West 9.2 mph - N/A   Clear